[[{"header":{"parameterUnit":"m.s-1","parameterCategory":1,"la1":30.2991,"la2":30.254,"lo1":-89.0895,"lo2":-89.0444,"dy":0.0017,"dx":0.0017,"nx":28,"ny":28,"refTime":"2025-12-27T03:00:00:Z","depth":0,"parameterNumber":2,"parameterNumberName":"U-component_of_WINDS"},"data":[0,0,0,0,0,0,0,0,0,0,0,0,0,0,0,0,0,0,0,0,0,0,0,0,0,0,0,0,0,0,0,0,0,0,0,0,0,0,0,0,0,0,0,0,0,0,0,0,0,0,0,0,0,0,0,0,0,0,0.4987,0.4987,0,0.5027,0.5027,0.5028,0.5055,0.5055,0.5055,0.5055,0.5097,0.5098,0.5098,0,0,0,0,0,0,0,0,0,0,0,0,0,0.4935,0.4935,0.4987,0.4987,0.4988,0.5027,0.5027,0.5028,0.5055,0.5055,0.5055,0.5055,0.5096,0.5097,0.5099,0,0,0,0,0,0,0,0,0,0,0,0,0,0.4964,0.4936,0.4986,0.5006,0.5008,0.5027,0.5027,0.5028,0.5055,0.5055,0.5055,0.5056,0.5096,0.5097,0.5099,0.5102,0,0,0.5103,0.5103,0,0,0,0,0,0,0,0,0.4963,0.4966,0.5002,0.5004,0.5007,0.5036,0.5024,0.5053,0.5055,0.5037,0.5055,0.5056,0.5076,0.5079,0.5086,0.5103,0.5105,0.5103,0.5104,0.5104,0.5105,0,0,0,0,0,0,0,0.496,0.4965,0.5003,0.5003,0.5006,0.5013,0.5017,0.503,0.5054,0.5038,0.5041,0.5045,0.5078,0.5085,0.5087,0.5106,0.5103,0.5104,0.5105,0.5106,0.513,0.513,0,0,0,0,0,0,0.4955,0.4963,0.5001,0.5004,0.4985,0.5014,0.5019,0.5026,0.5054,0.5059,0.5045,0.5046,0.5082,0.5086,0.5089,0.5096,0.5104,0.5106,0.5107,0.513,0.513,0.513,0,0,0,0,0,0,0.4954,0.4958,0.5,0.4984,0.499,0.5014,0.5023,0.5027,0.5034,0.5059,0.5064,0.5047,0.5083,0.5087,0.5099,0.5097,0.5106,0.5108,0.513,0.513,0.513,0.5108,0,0,0,0,0,0,0.4952,0.4958,0.4959,0.4984,0.499,0.5008,0.5023,0.5028,0.5037,0.5039,0.5063,0.5067,0.5083,0.5096,0.51,0.5099,0.5109,0.5131,0.513,0.513,0.5109,0.5107,0.5105,0,0,0,0,0,0.495,0.495,0.4958,0.4963,0.4992,0.5008,0.5012,0.503,0.5036,0.5038,0.5054,0.5066,0.5097,0.5097,0.5102,0.5101,0.5131,0.513,0.513,0.5109,0.5107,0.5105,0,0,0,0,0,0,0.4924,0.4954,0.4963,0.4971,0.4987,0.5012,0.5015,0.5027,0.5041,0.5042,0.5065,0.507,0.508,0.5092,0.5092,0.5107,0.5115,0.5116,0.5098,0.5096,0.5095,0.5091,0.511,0,0,0,0,0,0.4919,0.4929,0.4955,0.496,0.4967,0.499,0.4997,0.501,0.5027,0.5034,0.5051,0.5068,0.5081,0.5089,0.5103,0.5111,0.5117,0.5113,0.5111,0.5109,0.5109,0.5116,0.5115,0.5128,0.5128,0.5128,0,0,0.4909,0.4927,0.4932,0.4955,0.4968,0.4979,0.4995,0.5005,0.5014,0.5036,0.5048,0.5061,0.5081,0.5092,0.5097,0.5102,0.5107,0.5109,0.5107,0.5108,0.5116,0.5114,0.5113,0.5128,0.5128,0.5128,0,0,0.4896,0.491,0.4916,0.493,0.4951,0.4966,0.4968,0.4992,0.5002,0.5015,0.5032,0.5043,0.5065,0.5079,0.5089,0.5084,0.5097,0.5088,0.5079,0.5085,0.5084,0.5083,0.5082,0.5082,0.5088,0.5088,0.5088,0,0.4881,0.4898,0.4918,0.4928,0.4938,0.4959,0.4966,0.4979,0.5003,0.501,0.5015,0.5045,0.506,0.5074,0.5074,0.5081,0.5084,0.5085,0.5082,0.5082,0.5081,0.5081,0.5081,0.5087,0.5087,0.5087,0.5088,0,0.4878,0.489,0.4892,0.4916,0.4927,0.4935,0.4957,0.4966,0.4978,0.4993,0.5007,0.5026,0.5045,0.505,0.5061,0.5066,0.5069,0.5078,0.5087,0.5079,0.5079,0.5079,0.5086,0.5086,0.5086,0.5087,0,0,0.4849,0.4885,0.4885,0.4897,0.4923,0.4932,0.4942,0.4961,0.4968,0.4985,0.4995,0.5014,0.5024,0.5035,0.5049,0.5055,0.5051,0.5063,0.5064,0.5061,0.5059,0.5053,0.5052,0.506,0.506,0.506,0.5058,0,0.484,0.4859,0.4879,0.4891,0.4903,0.4924,0.4933,0.495,0.4965,0.4978,0.4994,0.5008,0.5019,0.5026,0.5033,0.505,0.5051,0.5051,0.507,0.507,0.5064,0.5052,0.5044,0.5041,0.5058,0.5058,0.5058,0,0.4833,0.4849,0.4862,0.4889,0.4894,0.4902,0.4922,0.4933,0.4954,0.4965,0.4978,0.4994,0.5007,0.5015,0.5034,0.5033,0.5042,0.5052,0.5053,0.5055,0.5064,0.5055,0.5041,0.5041,0.5058,0.5058,0.5058,0,0.4811,0.4836,0.4848,0.4857,0.4888,0.4893,0.4906,0.4927,0.4938,0.4955,0.4963,0.4981,0.4991,0.5006,0.5027,0.503,0.5044,0.5053,0.5054,0.5053,0.5055,0.5055,0.5043,0.5061,0.5061,0.5061,0.5061,0,0.4799,0.4807,0.4839,0.4846,0.4856,0.4879,0.4888,0.4903,0.4922,0.4933,0.4953,0.4963,0.499,0.5004,0.502,0.5034,0.5038,0.5048,0.5052,0.5046,0.5045,0.5053,0.5053,0.5061,0.5061,0.5061,0.5061,0,0.4776,0.4798,0.4812,0.4841,0.4848,0.4854,0.4879,0.4887,0.4904,0.4918,0.4923,0.4949,0.4967,0.4989,0.5013,0.5025,0.5037,0.5043,0.503,0.5032,0.5032,0.5032,0.5025,0.5026,0.5042,0.5042,0.5042,0,0.4768,0.4774,0.4804,0.4813,0.4826,0.484,0.4851,0.4875,0.4886,0.4911,0.4917,0.4936,0.4952,0.498,0.5001,0.5021,0.5028,0.5024,0.5031,0.5025,0.5029,0.5028,0.503,0.5022,0.5022,0.5022,0.5022,0,0.4751,0.4761,0.4777,0.4796,0.4809,0.4826,0.4843,0.485,0.4877,0.4889,0.4907,0.492,0.4946,0.4965,0.4988,0.5002,0.5017,0.502,0.5021,0.5015,0.5007,0.5012,0.5026,0.5019,0.502,0.502,0.502,0.502,0.4735,0.4742,0.4765,0.4782,0.4798,0.4814,0.4824,0.4842,0.4858,0.4881,0.4894,0.4912,0.4935,0.4967,0.4981,0.4996,0.5002,0.5003,0.5004,0.5004,0.5002,0.5005,0.5,0.5,0.5001,0.5001,0.5001,0,0.472,0.4735,0.4751,0.4775,0.4789,0.4802,0.4823,0.4833,0.4849,0.4869,0.4885,0.4907,0.4927,0.4951,0.4972,0.498,0.4987,0.4984,0.4984,0.4987,0.4996,0.4993,0.4978,0.4978,0.4978,0.4978,0.4978,0.4978,0.4713,0.4727,0.4741,0.4763,0.4779,0.4797,0.4808,0.4824,0.484,0.4864,0.488,0.4895,0.4917,0.4941,0.4959,0.4966,0.4973,0.4969,0.4977,0.4985,0.4987,0.4989,0.4986,0.497,0.497,0.4968,0.4968,0.4968]},{"header":{"parameterUnit":"m.s-1","parameterCategory":1,"la1":30.2991,"la2":30.254,"lo1":-89.0895,"lo2":-89.0444,"dy":0.0017,"dx":0.0017,"nx":28,"ny":28,"refTime":"2025-12-27T03:00:00:Z","depth":0,"parameterNumber":3,"parameterNumberName":"V-component_of_WINDS"},"data":[0,0,0,0,0,0,0,0,0,0,0,0,0,0,0,0,0,0,0,0,0,0,0,0,0,0,0,0,0,0,0,0,0,0,0,0,0,0,0,0,0,0,0,0,0,0,0,0,0,0,0,0,0,0,0,0,0,0,2.8202,2.8202,0,2.8204,2.8204,2.8204,2.8218,2.8218,2.8219,2.8219,2.8217,2.8217,2.8216,0,0,0,0,0,0,0,0,0,0,0,0,0,2.8207,2.8207,2.8202,2.8202,2.8202,2.8204,2.8204,2.8204,2.8218,2.8218,2.8219,2.8219,2.8217,2.8217,2.8216,0,0,0,0,0,0,0,0,0,0,0,0,0,2.8207,2.8207,2.8202,2.8209,2.821,2.8204,2.8204,2.8204,2.8218,2.8218,2.8219,2.8219,2.8217,2.8217,2.8216,2.8202,0,0,2.8215,2.8214,0,0,0,0,0,0,0,0,2.8207,2.8206,2.8208,2.8209,2.8209,2.8211,2.8205,2.8203,2.8218,2.8215,2.8219,2.8219,2.8215,2.8214,2.8213,2.8202,2.8202,2.8215,2.8214,2.8214,2.8214,0,0,0,0,0,0,0,2.8207,2.8206,2.8202,2.8208,2.8209,2.8211,2.8212,2.8205,2.8211,2.8215,2.8216,2.8216,2.8215,2.8214,2.8213,2.8202,2.8215,2.8214,2.8214,2.8214,2.8181,2.818,0,0,0,0,0,0,2.8206,2.8206,2.8202,2.8203,2.8209,2.8211,2.8211,2.821,2.8212,2.8212,2.8216,2.8217,2.8215,2.8214,2.8213,2.8198,2.8214,2.8214,2.8213,2.8181,2.818,2.818,0,0,0,0,0,0,2.8206,2.8206,2.8202,2.8205,2.8205,2.821,2.8209,2.821,2.8209,2.8212,2.8213,2.8214,2.8215,2.8214,2.8205,2.8198,2.8213,2.8213,2.8182,2.8181,2.818,2.8166,0,0,0,0,0,0,2.8206,2.8206,2.8201,2.8205,2.8204,2.8195,2.8208,2.8209,2.8208,2.821,2.821,2.8211,2.8215,2.8206,2.8205,2.8198,2.8212,2.8182,2.8181,2.818,2.8167,2.8165,2.8163,0,0,0,0,0,2.8206,2.8196,2.8201,2.82,2.8199,2.8195,2.8195,2.8201,2.8207,2.8203,2.8205,2.8211,2.8199,2.8205,2.8204,2.8196,2.8183,2.8182,2.8181,2.8168,2.8166,2.8163,0,0,0,0,0,0,2.819,2.8196,2.8202,2.8192,2.8193,2.8197,2.8191,2.8197,2.8195,2.8196,2.8203,2.8203,2.8193,2.8194,2.8201,2.8183,2.8192,2.8191,2.8183,2.8181,2.8179,2.8179,2.8212,0,0,0,0,0,2.8185,2.8182,2.8188,2.8179,2.8179,2.8185,2.8183,2.8188,2.8189,2.8189,2.819,2.819,2.8186,2.8183,2.818,2.8167,2.8168,2.8161,2.8159,2.8158,2.8156,2.815,2.8148,2.8176,2.8176,2.8176,0,0,2.8175,2.8179,2.8176,2.8176,2.8177,2.8173,2.8185,2.818,2.8177,2.8188,2.818,2.8181,2.8181,2.8171,2.8166,2.8171,2.8149,2.8156,2.8155,2.8154,2.8149,2.8146,2.8144,2.8175,2.8175,2.8175,0,0,2.8155,2.8158,2.8151,2.8152,2.8154,2.8159,2.8157,2.816,2.8162,2.8155,2.8163,2.8159,2.8152,2.8152,2.8151,2.8132,2.8138,2.8131,2.8119,2.8114,2.8112,2.811,2.8104,2.8101,2.8129,2.8129,2.8129,0,2.8142,2.8138,2.8146,2.8142,2.8141,2.8152,2.8145,2.8145,2.8146,2.8145,2.815,2.8143,2.8143,2.8133,2.8129,2.8128,2.8126,2.8131,2.8111,2.811,2.8108,2.8102,2.81,2.8128,2.8128,2.8129,2.8129,0,2.8123,2.8119,2.8114,2.8116,2.8114,2.8108,2.8115,2.8113,2.8118,2.8121,2.8114,2.8115,2.8113,2.8111,2.8115,2.8102,2.8105,2.811,2.812,2.8104,2.8099,2.8097,2.8127,2.8127,2.8128,2.8128,0,0,2.8092,2.8099,2.8097,2.8099,2.8102,2.8099,2.8094,2.8093,2.8091,2.8091,2.8087,2.8081,2.8087,2.8086,2.809,2.8085,2.8071,2.8092,2.8092,2.8088,2.8058,2.8054,2.8051,2.8075,2.8075,2.8074,2.8058,0,2.8073,2.8066,2.8074,2.8064,2.8061,2.8072,2.8067,2.8068,2.8071,2.8069,2.8072,2.8068,2.8076,2.8076,2.8071,2.8074,2.8065,2.8075,2.8071,2.807,2.8071,2.8048,2.8043,2.8028,2.8056,2.8055,2.8055,0,2.8051,2.8052,2.8043,2.8048,2.8047,2.8043,2.8043,2.8041,2.8042,2.8045,2.8044,2.805,2.8045,2.8054,2.8046,2.8053,2.8051,2.8052,2.8052,2.8052,2.8062,2.8048,2.8023,2.8021,2.8052,2.8052,2.8052,0,2.803,2.8029,2.8024,2.8024,2.803,2.8027,2.8029,2.8031,2.8031,2.803,2.803,2.8028,2.8028,2.8026,2.8031,2.8037,2.8023,2.8032,2.8025,2.8025,2.8022,2.8022,2.7997,2.802,2.802,2.802,2.802,0,2.801,2.8004,2.8015,2.8011,2.8005,2.8014,2.8007,2.801,2.8012,2.8009,2.8017,2.8014,2.8021,2.8018,2.8022,2.8015,2.8015,2.8016,2.8017,2.8016,2.8016,2.8015,2.8017,2.8019,2.8019,2.802,2.802,0,2.7985,2.7993,2.7988,2.7994,2.7996,2.7991,2.7996,2.7993,2.7997,2.7993,2.7993,2.7999,2.7996,2.8001,2.7999,2.8001,2.7992,2.7995,2.7992,2.7993,2.7986,2.7987,2.796,2.7957,2.7981,2.7981,2.7981,0,2.7972,2.7968,2.7974,2.7974,2.7976,2.7974,2.7974,2.7982,2.7981,2.7984,2.798,2.7979,2.7978,2.7973,2.7977,2.7975,2.7978,2.7969,2.7978,2.7977,2.7979,2.7979,2.7979,2.7967,2.7967,2.7966,2.7966,0,2.7947,2.7951,2.7951,2.7953,2.7953,2.7954,2.7956,2.7954,2.7963,2.7961,2.796,2.7959,2.7958,2.7956,2.7956,2.7957,2.7963,2.7963,2.7962,2.796,2.7959,2.7961,2.7988,2.7964,2.7964,2.7964,2.7965,2.7965,2.7928,2.7926,2.7931,2.793,2.7933,2.7934,2.7932,2.7937,2.7936,2.7937,2.7941,2.7939,2.7941,2.7941,2.7942,2.7939,2.7943,2.7941,2.794,2.794,2.7939,2.796,2.7939,2.7939,2.7939,2.7939,2.7939,0,2.7905,2.7909,2.7909,2.7912,2.7912,2.7919,2.7921,2.792,2.7918,2.7921,2.792,2.7919,2.7917,2.7921,2.7921,2.7918,2.7921,2.7918,2.7918,2.7918,2.7935,2.7937,2.7915,2.7915,2.7915,2.7915,2.7915,2.7915,2.7893,2.7889,2.7894,2.7891,2.7895,2.7894,2.7894,2.7896,2.7898,2.7896,2.7896,2.7899,2.7902,2.7902,2.7901,2.7902,2.7901,2.7897,2.7899,2.7915,2.7917,2.7919,2.7921,2.7897,2.7897,2.7883,2.7883,2.7883]}]]